Tracking 27112 objects as of 27-Mar-2023
HD Live streaming from Space Station
objects crossing your sky now

ARIANE 5 DEB (SYLDA)

Track ARIANE 5 DEB (SYLDA) now!


NORAD ID: 44037
Int'l Code: 2019-007D
Perigee: 262.2 km
Apogee: 34,889.6 km
Inclination: 3.1 °
Period: 614.7 minutes
Semi major axis: 23946 km
RCS: Unknown
Launch date: February 5, 2019
Source: France (FR)
Launch site: FRENCH GUIANA (FRGUI)

Note: This is SATELLITE DEBRIS
Your satellite tracking list
Your tracking list is empty




NASA's NSSDC Master Catalog

Two Line Element Set (TLE):
1 44037U 19007D   23085.49807517  .00007206  00000-0  22216-2 0  9994
2 44037   3.0598 358.2767 7230042   4.1820 359.5372  2.34277142 34717
Source of the keplerian elements: AFSPC